Wind_Speed
68 68 67 68 69 69 74 73 74 75 76 74 71 72 73 75 77 78 78 73 72 70 70 73 76 74 73 69 69 69 69 63 59 57 58 57 56 56 59 60 58 56 55
74 73 70 70 72 74 72 71 73 77 77 76 75 74 74 77 79 78 78 80 78 73 68 70 74 73 70 67 71 70 68 63 58 58 59 62 63 63 61 61 59 57 55
80 80 77 75 75 80 79 79 73 73 75 76 81 79 78 79 80 82 81 80 75 79 72 69 72 74 72 72 71 70 70 67 66 59 60 59 62 61 62 62 60 58 57
80 86 88 87 85 85 84 83 83 78 77 79 82 82 81 83 84 86 86 86 85 78 76 72 73 74 73 72 72 75 74 70 65 62 60 57 60 60 59 58 55 55 54
88 89 91 90 89 89 92 90 88 85 86 86 85 88 88 88 90 89 91 91 88 85 82 79 80 81 82 81 79 79 76 73 69 65 64 60 59 62 58 58 57 55 53
93 93 94 93 92 92 92 93 93 94 93 88 90 91 95 91 95 89 88 91 91 90 84 85 86 88 88 84 79 79 78 77 73 70 68 67 61 58 59 58 58 55 54
99 100 100 99 99 98 98 98 97 97 96 94 94 95 97 92 93 94 95 93 92 91 92 89 88 85 86 84 81 79 79 80 75 74 72 68 68 60 63 60 59 59 56
102 103 103 104 105 106 107 107 107 107 105 103 102 99 98 101 98 99 100 101 100 96 93 97 94 89 87 87 82 85 81 78 75 80 74 77 68 68 68 62 59 60 60
95 95 96 97 99 101 104 107 109 112 112 110 108 106 104 103 103 103 106 105 103 105 104 101 97 99 91 93 95 91 82 79 74 76 75 73 75 76 74 68 63 63 63
87 89 90 91 93 95 97 98 100 103 106 107 108 107 108 107 103 105 109 111 109 103 101 99 98 93 90 102 90 91 80 70 72 73 75 76 75 79 74 68 69 68 66
83 85 87 89 91 92 92 93 94 95 96 98 101 102 103 104 104 102 103 113 113 111 102 96 91 90 86 86 86 79 73 80 77 77 75 79 82 84 78 70 71 71 69
83 84 87 89 91 92 94 93 95 96 97 96 97 96 94 94 96 96 97 100 109 115 113 100 94 95 89 90 94 82 83 80 85 80 78 83 86 72 72 73 71 69 71
80 80 80 81 82 84 85 86 88 89 92 91 93 93 93 94 94 93 91 91 94 103 110 107 98 97 91 92 94 89 89 87 83 85 78 73 67 63 63 69 74 73 74
71 67 64 64 64 66 66 66 65 66 70 74 76 78 82 87 89 90 94 91 88 91 94 96 95 96 100 93 87 92 88 85 82 80 74 70 67 65 66 71 74 80 81
57 49 49 56 60 62 62 62 63 63 67 69 65 63 64 68 72 80 86 88 87 88 89 89 92 93 93 97 99 88 86 89 87 81 78 76 71 70 71 73 76 77 76
43 45 53 55 51 50 52 54 58 61 60 58 65 66 59 55 57 64 69 75 80 82 87 87 84 85 87 92 99 102 96 85 80 78 76 73 74 73 74 72 74 78 72
48 52 50 50 49 51 53 56 54 54 53 52 51 51 50 47 50 52 54 59 65 72 79 81 80 77 78 81 86 89 89 94 94 82 76 78 79 77 73 72 73 71 74
52 49 44 46 47 48 52 45 41 41 46 50 51 46 44 43 43 43 44 48 54 62 68 71 72 71 73 76 77 79 79 79 82 80 79 84 81 78 75 77 84 73 68
42 43 43 42 43 41 42 34 34 32 31 31 35 38 37 37 38 40 41 42 44 51 53 60 66 68 71 74 75 71 70 74 78 80 83 83 82 84 80 80 81 78 77
41 37 33 33 37 34 32 28 31 35 32 29 27 26 26 27 28 30 34 38 41 46 50 56 60 66 70 73 72 70 68 63 65 67 73 77 74 80 78 78 80 78 81
34 35 36 33 31 31 29 30 31 31 33 31 26 23 21 19 21 24 27 33 36 41 47 50 54 62 65 72 71 71 70 64 56 51 53 61 63 64 64 67 71 70 70
32 35 36 36 37 29 27 28 28 25 27 31 25 21 18 18 18 18 22 27 30 34 40 44 48 54 61 65 71 72 64 60 61 58 54 54 53 50 53 56 59 57 58
31 34 36 36 36 35 34 25 25 23 23 26 27 20 16 13 13 14 17 20 23 27 30 33 37 41 48 57 67 71 64 59 60 58 57 56 56 56 57 58 59 59 59
30 34 36 37 36 36 35 35 26 22 22 22 22 23 19 13 9 7 9 11 14 16 19 22 25 30 39 46 54 60 57 52 50 51 53 54 55 57 56 57 58 60 61
30 33 36 38 38 38 37 36 33 27 19 18 17 14 13 13 11 9 8 5 3 9 11 19 20 16 20 25 36 46 49 44 45 47 48 48 50 51 52 53 55 55 56
32 34 36 37 37 37 37 38 37 32 27 18 14 13 9 6 5 3 3 3 4 6 8 9 21 23 21 22 30 38 36 37 38 39 39 40 41 44 46 48 49 50 52
Wind_Direction
276 271 266 266 263 259 255 257 251 250 250 254 256 257 257 256 255 255 257 258 260 260 262 262 260 252 252 249 249 250 254 256 258 261 264 265 267 268 268 265 263 262 263
281 275 268 268 264 255 253 253 253 251 252 251 253 257 257 259 261 257 257 259 257 258 258 258 254 247 246 244 245 249 252 251 254 260 268 272 272 271 267 265 264 263 262
279 275 269 270 269 260 254 252 255 257 254 255 252 254 256 258 259 262 261 259 256 257 253 252 253 247 242 240 243 245 246 249 254 266 270 271 270 269 264 263 264 265 266
276 275 272 270 268 266 264 260 255 259 265 267 266 263 257 253 254 257 258 259 258 253 250 246 243 244 241 239 242 244 246 250 258 265 267 270 268 268 267 265 264 262 263
277 275 273 273 271 268 268 268 269 270 269 269 265 262 260 260 254 252 252 253 253 252 249 244 241 240 242 242 243 246 250 256 261 266 269 270 268 267 267 267 264 262 262
275 274 273 272 271 271 271 270 269 269 269 265 259 259 258 257 253 247 245 245 247 249 247 246 242 242 242 242 246 249 251 253 259 264 267 271 267 265 263 263 264 264 264
276 275 275 273 272 271 270 270 270 271 268 265 262 258 255 257 259 261 252 246 245 245 245 243 242 242 245 248 250 254 259 254 257 259 266 267 267 264 265 262 265 262 263
276 275 275 274 273 272 271 270 269 268 267 267 265 262 258 256 257 259 259 254 248 247 246 245 242 241 243 245 249 252 251 254 261 262 264 263 261 260 262 264 266 268 269
278 278 278 277 276 275 274 273 271 269 267 266 265 264 262 258 257 256 255 255 256 253 247 247 250 248 249 248 253 256 258 260 255 258 261 259 261 264 264 266 265 267 268
280 280 279 278 277 276 274 272 271 270 269 268 264 263 260 259 257 255 255 254 253 254 254 258 259 256 250 252 257 261 264 255 251 253 259 259 264 261 259 260 263 264 266
282 282 281 280 279 278 276 274 273 271 269 268 267 264 262 260 256 255 252 253 253 252 252 250 248 253 253 251 246 252 256 250 251 254 256 254 256 256 258 262 264 264 268
286 285 284 283 282 280 279 276 274 272 269 267 265 264 263 261 258 255 254 252 251 252 252 250 245 245 242 249 247 248 244 247 251 251 251 253 255 255 262 268 270 266 269
290 291 290 288 286 284 282 280 278 275 272 269 267 265 263 260 258 258 254 251 251 251 250 252 246 243 241 243 246 246 243 245 248 249 253 255 256 259 262 262 262 262 262
298 297 296 294 292 290 288 286 283 281 278 273 269 267 264 260 259 257 255 252 249 250 249 248 248 243 242 244 241 244 245 246 246 250 247 249 252 257 265 265 261 261 261
300 303 307 308 299 293 289 287 285 284 281 275 272 269 265 261 259 256 254 252 249 247 247 246 244 244 242 242 248 243 244 246 244 245 249 252 255 256 262 265 265 264 264
300 305 312 313 307 305 300 293 291 287 284 282 276 274 268 265 260 257 254 252 249 247 245 244 243 243 242 239 240 246 247 240 243 243 247 253 254 255 257 260 261 261 260
303 308 313 314 309 309 309 303 291 287 287 281 277 275 274 270 262 259 256 251 248 246 244 243 241 240 239 239 238 241 245 247 250 251 253 252 248 252 251 254 254 257 257
313 314 312 317 314 312 318 313 310 295 283 283 281 276 272 269 264 260 256 250 246 245 243 241 238 236 236 236 237 239 238 240 245 245 246 247 245 247 247 249 252 257 259
329 323 314 315 322 323 330 330 332 326 314 298 286 277 271 267 263 260 258 255 247 240 238 237 234 230 231 233 233 238 240 237 236 237 239 242 245 247 248 249 251 253 259
354 342 335 325 325 324 337 344 345 347 340 324 311 296 281 272 265 258 253 248 244 239 232 232 229 226 227 229 229 232 238 240 241 238 240 240 241 242 244 247 251 254 256
352 356 2 345 329 330 329 332 336 340 343 341 329 315 298 279 267 257 248 244 239 236 235 233 229 227 227 225 224 227 233 233 233 241 248 245 245 243 247 252 255 254 255
350 354 355 356 4 341 334 336 337 343 356 358 342 331 314 292 277 263 251 246 242 237 236 234 231 230 228 226 224 225 230 234 241 245 240 248 248 244 244 244 245 247 251
346 348 350 353 357 3 2 336 340 338 343 355 3 347 327 310 294 277 263 254 247 246 242 238 235 232 231 229 228 226 232 237 238 238 239 241 243 245 249 251 253 254 257
344 347 350 352 354 357 1 4 351 339 339 343 359 18 20 3 335 293 260 250 249 244 237 233 228 229 234 233 231 231 231 236 237 240 241 245 249 251 252 254 257 261 263
341 346 347 348 349 352 354 357 359 357 337 342 346 356 10 19 20 26 29 19 316 232 210 213 208 220 232 234 230 230 232 236 238 241 246 249 251 252 253 255 258 260 261
339 342 343 344 346 347 348 348 351 353 352 332 329 337 346 329 348 6 358 331 282 262 255 259 225 223 221 217 222 228 232 233 234 237 242 246 249 253 255 255 256 257 259
Height
5611 5611 5609 5609 5608 5607 5607 5607 5608 5607 5606 5606 5606 5608 5610 5611 5611 5612 5614 5615 5620 5622 5623 5627 5632 5632 5635 5636 5637 5637 5639 5639 5642 5648 5649 5651 5654 5656 5657 5658 5660 5662 5663
5592 5591 5588 5588 5588 5587 5586 5587 5587 5587 5586 5585 5586 5588 5589 5591 5590 5591 5593 5594 5597 5601 5603 5606 5612 5612 5616 5618 5619 5622 5624 5623 5624 5628 5633 5637 5639 5640 5641 5642 5643 5646 5647
5569 5570 5570 5569 5568 5566 5564 5563 5562 5564 5564 5565 5565 5565 5568 5569 5569 5570 5570 5572 5575 5580 5583 5587 5593 5595 5598 5598 5600 5603 5605 5606 5607 5612 5615 5619 5622 5624 5625 5624 5627 5629 5631
5543 5544 5545 5544 5545 5543 5542 5541 5540 5539 5541 5542 5542 5545 5544 5546 5547 5548 5549 5551 5553 5557 5562 5566 5571 5578 5582 5581 5581 5583 5586 5588 5590 5594 5599 5603 5604 5606 5608 5608 5609 5610 5613
5518 5517 5516 5516 5515 5516 5515 5515 5515 5515 5515 5516 5518 5521 5522 5525 5525 5525 5526 5530 5532 5534 5540 5545 5548 5554 5558 5561 5562 5564 5566 5569 5570 5574 5581 5585 5588 5590 5590 5589 5589 5592 5595
5492 5491 5490 5490 5489 5488 5487 5487 5487 5486 5487 5489 5492 5493 5495 5498 5500 5502 5504 5506 5509 5513 5519 5524 5526 5530 5536 5539 5543 5544 5547 5548 5551 5553 5559 5566 5570 5571 5569 5571 5571 5575 5579
5462 5461 5459 5459 5459 5458 5456 5456 5456 5455 5457 5460 5463 5465 5468 5471 5471 5473 5476 5481 5485 5490 5496 5500 5505 5510 5514 5518 5521 5523 5525 5528 5530 5535 5538 5547 5549 5553 5551 5551 5554 5556 5560
5433 5430 5428 5426 5425 5424 5421 5421 5420 5419 5421 5423 5426 5431 5436 5442 5441 5443 5444 5449 5456 5464 5470 5475 5479 5485 5490 5493 5495 5499 5505 5508 5512 5514 5518 5524 5527 5532 5532 5532 5534 5537 5541
5402 5400 5397 5392 5390 5389 5388 5386 5385 5382 5384 5386 5389 5394 5398 5408 5411 5412 5411 5415 5423 5433 5439 5445 5451 5459 5464 5468 5470 5474 5479 5486 5488 5490 5496 5500 5505 5509 5511 5513 5516 5517 5521
5377 5372 5367 5363 5359 5355 5353 5352 5350 5345 5345 5346 5351 5356 5359 5367 5376 5379 5380 5380 5392 5402 5410 5416 5421 5430 5434 5438 5444 5448 5456 5463 5465 5467 5473 5478 5483 5487 5488 5492 5495 5496 5498
5355 5348 5341 5335 5328 5324 5320 5318 5313 5311 5309 5311 5311 5318 5320 5327 5337 5340 5344 5345 5355 5365 5376 5387 5396 5399 5405 5411 5419 5425 5435 5433 5438 5443 5451 5453 5460 5464 5468 5472 5474 5476 5476
5330 5324 5315 5306 5298 5290 5283 5283 5277 5274 5272 5276 5275 5279 5284 5290 5294 5303 5307 5310 5319 5325 5341 5356 5366 5371 5375 5381 5389 5402 5406 5408 5414 5422 5428 5432 5437 5442 5448 5452 5453 5454 5454
5303 5296 5287 5277 5269 5260 5252 5247 5242 5238 5236 5239 5239 5243 5252 5254 5258 5266 5273 5280 5283 5288 5306 5316 5328 5339 5347 5352 5363 5372 5378 5383 5393 5399 5407 5411 5414 5420 5423 5429 5431 5430 5431
5278 5270 5261 5252 5245 5236 5227 5220 5214 5209 5205 5204 5204 5207 5213 5219 5227 5233 5235 5244 5254 5259 5272 5282 5291 5304 5319 5330 5334 5340 5353 5361 5371 5378 5384 5386 5391 5397 5402 5404 5406 5407 5408
5260 5252 5243 5234 5224 5215 5206 5198 5192 5187 5180 5178 5177 5178 5181 5188 5194 5195 5201 5210 5223 5232 5237 5248 5259 5273 5290 5306 5312 5318 5325 5335 5347 5354 5358 5365 5371 5375 5378 5379 5381 5384 5386
5246 5238 5230 5218 5207 5197 5188 5181 5171 5164 5160 5156 5154 5154 5159 5163 5164 5166 5172 5180 5190 5200 5203 5218 5234 5248 5263 5277 5286 5293 5299 5309 5321 5328 5333 5341 5348 5350 5353 5355 5358 5361 5363
5232 5224 5215 5205 5194 5185 5174 5163 5157 5149 5140 5137 5137 5137 5139 5143 5143 5145 5149 5156 5163 5167 5176 5194 5210 5225 5238 5247 5257 5264 5271 5281 5294 5302 5309 5317 5323 5325 5328 5333 5336 5338 5340
5219 5209 5202 5193 5183 5173 5161 5148 5137 5130 5128 5121 5119 5121 5122 5123 5126 5128 5131 5134 5142 5147 5158 5171 5186 5201 5212 5221 5230 5236 5246 5258 5268 5277 5283 5290 5296 5300 5304 5309 5314 5318 5319
5209 5199 5191 5184 5174 5164 5152 5141 5131 5123 5116 5111 5107 5106 5108 5108 5110 5114 5117 5121 5126 5132 5142 5152 5164 5178 5189 5197 5208 5217 5226 5235 5242 5249 5257 5266 5272 5278 5282 5286 5291 5295 5297
5205 5193 5185 5177 5168 5159 5149 5140 5131 5121 5112 5105 5101 5098 5097 5098 5099 5102 5105 5108 5112 5119 5125 5133 5145 5157 5167 5178 5190 5199 5207 5216 5223 5230 5237 5244 5249 5254 5259 5263 5268 5271 5275
5203 5194 5182 5171 5163 5155 5147 5139 5130 5122 5113 5104 5098 5095 5093 5092 5092 5093 5096 5099 5103 5108 5113 5121 5132 5139 5148 5156 5168 5179 5189 5199 5207 5213 5218 5223 5229 5233 5236 5243 5247 5250 5253
5200 5191 5182 5172 5161 5151 5144 5137 5129 5122 5114 5106 5098 5094 5091 5089 5089 5089 5091 5093 5096 5100 5104 5110 5118 5126 5133 5142 5153 5164 5174 5183 5190 5197 5203 5208 5213 5214 5220 5224 5229 5231 5233
5197 5189 5181 5171 5162 5152 5143 5135 5128 5122 5115 5109 5102 5095 5091 5089 5087 5087 5088 5090 5092 5095 5100 5105 5110 5117 5123 5131 5140 5151 5161 5170 5176 5182 5188 5193 5197 5201 5205 5208 5212 5215 5217
5194 5186 5178 5169 5161 5152 5143 5135 5127 5121 5115 5110 5105 5099 5094 5091 5089 5088 5088 5088 5090 5092 5096 5100 5105 5110 5116 5124 5132 5142 5151 5158 5163 5168 5173 5179 5183 5187 5190 5193 5195 5198 5200
5190 5183 5175 5167 5159 5151 5143 5135 5128 5122 5116 5111 5106 5103 5100 5097 5095 5094 5093 5092 5092 5093 5095 5099 5103 5108 5113 5117 5124 5132 5140 5145 5150 5155 5160 5164 5168 5171 5175 5177 5181 5183 5184
5185 5179 5172 5165 5157 5150 5142 5135 5128 5122 5116 5111 5107 5104 5100 5099 5098 5096 5095 5095 5095 5096 5097 5100 5102 5106 5109 5113 5118 5124 5129 5135 5140 5144 5148 5152 5156 5159 5161 5164 5166 5167 5168